GAOFEN 2

Last updated on Tue Nov 21 2023 00:02:24 GMT+0000 (Coordinated Universal Time)

1 40118U 14049A 23324.59109939 .00001060 00000+0 14412-3 0 9992 2 40118 97.6941 19.1405 0005900 65.7463 294.4366 14.80745098500204

Satellite not in orbit

GAOFEN 2